Stündliche Wetter Holoven'ky

Heute, 21 Juni, Montag

Zeit Temperatur Niederschläge Wind Luftdruck Luftfeuchtigkeit
00:00 +20°C° 0.1 mm 3 m/S 750 mmHg 86%
01:00 +19°C° 0.1 mm 3 m/S 750 mmHg 86%
02:00 +19°C° 0 mm 4 m/S 750 mmHg 84%
03:00 +19°C° 0.3 mm 4 m/S 750 mmHg 86%
04:00 +19°C° 0.3 mm 3 m/S 749 mmHg 87%
05:00 +19°C° 0.3 mm 3 m/S 749 mmHg 89%
06:00 +20°C° 0.1 mm 4 m/S 749 mmHg 86%
07:00 +21°C° 0.1 mm 4 m/S 749 mmHg 82%
08:00 +23°C° 0 mm 5 m/S 749 mmHg 79%
09:00 +25°C° 0 mm 5 m/S 749 mmHg 74%
10:00 +26°C° 0 mm 5 m/S 749 mmHg 69%
11:00 +28°C° 0 mm 6 m/S 749 mmHg 64%
12:00 +29°C° 0 mm 6 m/S 749 mmHg 64%
13:00 +29°C° 0 mm 6 m/S 749 mmHg 64%
14:00 +30°C° 0 mm 6 m/S 749 mmHg 63%
15:00 +29°C° 0 mm 6 m/S 749 mmHg 65%
16:00 +29°C° 0 mm 5 m/S 749 mmHg 68%
17:00 +28°C° 0 mm 5 m/S 749 mmHg 70%
18:00 +27°C° 0 mm 5 m/S 749 mmHg 76%
19:00 +25°C° 0 mm 4 m/S 749 mmHg 81%
20:00 +24°C° 0 mm 3 m/S 749 mmHg 87%
21:00 +22°C° 0 mm 3 m/S 750 mmHg 89%
22:00 +21°C° 0 mm 3 m/S 750 mmHg 91%
23:00 +20°C° 0 mm 3 m/S 750 mmHg 92%

Morgen, 22 Juni, Dienstag

Zeit Temperatur Niederschläge Wind Luftdruck Luftfeuchtigkeit
00:00 +20°C° 0 mm 3 m/S 750 mmHg 92%
01:00 +19°C° 0 mm 3 m/S 750 mmHg 92%
02:00 +19°C° 0 mm 3 m/S 750 mmHg 91%
03:00 +19°C° 0 mm 3 m/S 750 mmHg 90%
04:00 +19°C° 0 mm 3 m/S 750 mmHg 88%
05:00 +19°C° 0 mm 3 m/S 750 mmHg 87%
06:00 +21°C° 0 mm 3 m/S 750 mmHg 81%
07:00 +22°C° 0 mm 4 m/S 750 mmHg 75%
08:00 +25°C° 0 mm 4 m/S 750 mmHg 69%
09:00 +26°C° 0 mm 4 m/S 750 mmHg 65%
10:00 +28°C° 0 mm 5 m/S 750 mmHg 62%
11:00 +29°C° 0 mm 5 m/S 750 mmHg 58%
12:00 +29°C° 0 mm 5 m/S 750 mmHg 59%
13:00 +29°C° 0 mm 5 m/S 750 mmHg 60%
14:00 +29°C° 0 mm 5 m/S 750 mmHg 61%
15:00 +29°C° 0 mm 5 m/S 750 mmHg 64%
16:00 +29°C° 0 mm 5 m/S 750 mmHg 67%
17:00 +28°C° 0 mm 4 m/S 750 mmHg 70%
18:00 +27°C° 0 mm 4 m/S 750 mmHg 76%
19:00 +25°C° 0 mm 4 m/S 750 mmHg 81%
20:00 +24°C° 0 mm 3 m/S 750 mmHg 87%
21:00 +22°C° 0 mm 3 m/S 750 mmHg 89%
22:00 +21°C° 0 mm 3 m/S 750 mmHg 91%
23:00 +21°C° 0 mm 3 m/S 750 mmHg 93%

übermorgen, 23 Juni, Mittwoch

Zeit Temperatur Niederschläge Wind Luftdruck Luftfeuchtigkeit
00:00 +21°C° 0 mm 3 m/S 750 mmHg 93%
01:00 +21°C° 0 mm 3 m/S 750 mmHg 93%
02:00 +20°C° 0 mm 3 m/S 750 mmHg 93%
03:00 +21°C° 0 mm 3 m/S 751 mmHg 92%
04:00 +21°C° 0 mm 3 m/S 751 mmHg 92%
05:00 +21°C° 0 mm 3 m/S 751 mmHg 91%
06:00 +22°C° 0 mm 3 m/S 751 mmHg 85%
07:00 +25°C° 0 mm 4 m/S 751 mmHg 80%
08:00 +27°C° 0 mm 4 m/S 751 mmHg 74%
09:00 +28°C° 0 mm 5 m/S 751 mmHg 71%
10:00 +29°C° 0 mm 5 m/S 751 mmHg 68%
11:00 +30°C° 0 mm 6 m/S 751 mmHg 64%
12:00 +30°C° 0 mm 5 m/S 751 mmHg 65%
13:00 +32°C° 0 mm 5 m/S 751 mmHg 66%
14:00 +32°C° 0 mm 5 m/S 751 mmHg 67%
15:00 +32°C° 0 mm 5 m/S 751 mmHg 69%
16:00 +30°C° 0 mm 4 m/S 751 mmHg 72%
17:00 +30°C° 0 mm 4 m/S 751 mmHg 74%
18:00 +28°C° 0 mm 4 m/S 751 mmHg 80%
19:00 +27°C° 0 mm 3 m/S 751 mmHg 85%
20:00 +26°C° 0 mm 3 m/S 751 mmHg 90%
21:00 +25°C° 0 mm 3 m/S 751 mmHg 91%
22:00 +24°C° 0 mm 3 m/S 751 mmHg 92%
23:00 +22°C° 0 mm 3 m/S 751 mmHg 92%

24 Juni, Donnerstag

Zeit Temperatur Niederschläge Wind Luftdruck Luftfeuchtigkeit
00:00 +23°C° 0 mm 2 m/S 751 mmHg 92%
01:00 +23°C° 0 mm 2 m/S 751 mmHg 91%
02:00 +21°C° 0 mm 2 m/S 751 mmHg 90%
03:00 +21°C° 0 mm 2 m/S 751 mmHg 89%
04:00 +21°C° 0 mm 2 m/S 751 mmHg 87%
05:00 +21°C° 0 mm 2 m/S 751 mmHg 86%
06:00 +24°C° 0 mm 3 m/S 751 mmHg 80%
07:00 +25°C° 0 mm 3 m/S 751 mmHg 75%
08:00 +27°C° 0 mm 3 m/S 752 mmHg 69%
09:00 +28°C° 0 mm 3 m/S 751 mmHg 66%
10:00 +30°C° 0 mm 3 m/S 751 mmHg 64%
11:00 +32°C° 0 mm 4 m/S 751 mmHg 61%
12:00 +32°C° 0 mm 4 m/S 751 mmHg 59%
13:00 +33°C° 0 mm 4 m/S 751 mmHg 57%
14:00 +33°C° 0 mm 3 m/S 751 mmHg 55%
15:00 +31°C° 0 mm 3 m/S 751 mmHg 60%
16:00 +30°C° 0 mm 3 m/S 751 mmHg 64%
17:00 +29°C° 0 mm 3 m/S 751 mmHg 68%
18:00 +28°C° 0 mm 2 m/S 751 mmHg 71%
19:00 +26°C° 0 mm 2 m/S 751 mmHg 73%
20:00 +25°C° 0 mm 2 m/S 751 mmHg 75%
21:00 +24°C° 0 mm 2 m/S 751 mmHg 78%
22:00 +23°C° 0 mm 2 m/S 751 mmHg 80%
23:00 +21°C° 0 mm 2 m/S 751 mmHg 82%

25 Juni, Freitag

Zeit Temperatur Niederschläge Wind Luftdruck Luftfeuchtigkeit
00:00 +21°C° 0 mm 2 m/S 751 mmHg 84%
01:00 +21°C° 0 mm 2 m/S 751 mmHg 86%
02:00 +20°C° 0 mm 2 m/S 751 mmHg 88%
03:00 +21°C° 0 mm 2 m/S 751 mmHg 88%
04:00 +21°C° 0 mm 2 m/S 751 mmHg 87%
05:00 +21°C° 0 mm 2 m/S 750 mmHg 87%
06:00 +24°C° 0 mm 2 m/S 750 mmHg 81%
07:00 +26°C° 0 mm 2 m/S 751 mmHg 75%
08:00 +27°C° 0 mm 2 m/S 751 mmHg 70%
09:00 +28°C° 0 mm 2 m/S 751 mmHg 67%
10:00 +30°C° 0 mm 2 m/S 751 mmHg 64%
11:00 +31°C° 0 mm 2 m/S 751 mmHg 61%
12:00 +31°C° 0 mm 2 m/S 750 mmHg 60%
13:00 +32°C° 0 mm 2 m/S 750 mmHg 58%
14:00 +32°C° 0 mm 2 m/S 750 mmHg 56%
15:00 +32°C° 0 mm 2 m/S 750 mmHg 59%
16:00 +32°C° 0 mm 2 m/S 750 mmHg 61%
17:00 +32°C° 0 mm 2 m/S 749 mmHg 64%
18:00 +30°C° 0.4 mm 2 m/S 749 mmHg 71%
19:00 +28°C° 0.4 mm 2 m/S 749 mmHg 77%
20:00 +26°C° 0.4 mm 2 m/S 749 mmHg 84%
21:00 +25°C° 0 mm 2 m/S 749 mmHg 85%
22:00 +25°C° 0 mm 2 m/S 749 mmHg 86%
23:00 +24°C° 0 mm 1 m/S 749 mmHg 87%

26 Juni, Samstag

Zeit Temperatur Niederschläge Wind Luftdruck Luftfeuchtigkeit
00:00 +24°C° 0 mm 1 m/S 749 mmHg 88%
01:00 +23°C° 0 mm 1 m/S 749 mmHg 89%
02:00 +23°C° 0 mm 1 m/S 749 mmHg 89%
03:00 +23°C° 0 mm 1 m/S 749 mmHg 88%
04:00 +24°C° 0 mm 1 m/S 749 mmHg 87%
05:00 +22°C° 0 mm 0 m/S 749 mmHg 87%
06:00 +25°C° 0 mm 1 m/S 749 mmHg 82%
07:00 +27°C° 0 mm 1 m/S 749 mmHg 78%
08:00 +28°C° 0 mm 1 m/S 749 mmHg 73%
09:00 +29°C° 0 mm 1 m/S 749 mmHg 68%
10:00 +30°C° 0 mm 1 m/S 749 mmHg 63%
11:00 +31°C° 0 mm 1 m/S 749 mmHg 58%
12:00 +32°C° 0 mm 1 m/S 749 mmHg 56%
13:00 +32°C° 0 mm 1 m/S 749 mmHg 53%
14:00 +33°C° 0 mm 1 m/S 749 mmHg 51%
15:00 +32°C° 0 mm 1 m/S 749 mmHg 53%
16:00 +32°C° 0 mm 1 m/S 748 mmHg 55%
17:00 +32°C° 0 mm 1 m/S 748 mmHg 57%
18:00 +29°C° 0.6 mm 1 m/S 748 mmHg 66%
19:00 +25°C° 0.6 mm 2 m/S 748 mmHg 75%
20:00 +21°C° 0.6 mm 2 m/S 748 mmHg 84%
21:00 +20°C° 0.8 mm 2 m/S 748 mmHg 86%
22:00 +20°C° 0.8 mm 2 m/S 748 mmHg 88%
23:00 +19°C° 0.8 mm 2 m/S 749 mmHg 90%
Mehr zeigen

Wir brauchen deine Erlaubnis

Meteoprog und unser Service Anbieter werden persönliche Daten aufbewahren, so wie Cookies, Geräte Bezeichnung oder ähnliche Technologien von deinem Gerät und Prozess, so wie Persönliche Daten Inhalte und Werbungen, genauso wie social Media und den Verkehr zu analysieren.

  • Aufbewahrung und/oder Zugang zu deiner Geräte Informationen.

    Cookies, Geräte Bezeichnung oder andere Informationen, können aufbewahrt oder Zugang zu deinem Gerät erhalten, für den Grund, der oben angegeben wird.

  • Personalisierte Werbung und Inhalte, Messungen, Einblick in das Publikum und Produkt Entwicklung.

    Werbungen und Inhalte können personalisiert werden, basierend auf ein Profil. Mehr Daten können besser personalisierte Werbungen und Inhalte hinzufügen. Werbung und Inhalte können gezeigt und gemessen werden. Einblicke über das Publikum, welche die Werbung gesehen haben und den Inhalt, können abgeleitet werden. So wie Daten können genutzt werden, um es zu verbessern oder die Benutzer Erfahrung zu verbessern das System und die Software.

Wenn du “Ich stimme zu” klickst, erlaubst du uns, die Cookies zu benutzen die Geräte Bezeichnung, den Web oder ähnliche Technologien zu benutzen. Deine Settings, können in deinem Gerät bei deinem Browser geändert werden.

Für den bestimmten Zweck, berechtigten Interessen beruhen darauf, mehr als auf den Inhalt. Du kannst mehr darüber in unseren Privaten und Cookie Politik lesen.